SL-16 DEB, 39867

Orbit data source: Space-Track

SL-16 DEB, 39867 is space debris in LEO originally from a launch on Fri, 25 Dec 1992 UTC launched from the Tyuratam Missile And Space Complex (TTMTR). Debris objects in space refer to the collection of defunct objects orbiting the Earth. Examples of debris include non-operational satellites, rocket bodies, and fragments generated from explosions, collisions, or faulty payload assembly.

Loading next visibility...
Identifier
39867, 1992-093LV
Orbit
LEO
Country
Flag of CISCIS
Related business
Manufacturer
Unknown
Mission
Spacecraft
Bus & Motor
Unknown
Mass
Unknown
Launch date (UTC)
1992-12-25 (33 years ago)
Launch vehicle
Unknown
Launch site
Tyuratam Missile And Space Complex (TTMTR)
Object type
Payload
Rocket body
Debris
Shape & HBR
Unknown shape, 0.1 m
Radar Cross Section
Small (<0.1 m²)

Expand to show TLE details & history
Last TLE update: 2 months ago

TLE from 2 months ago
0 SL-16 DEB
1 39867U 92093LV  25288.32979316  .00006824  00000-0  29051-2 0  9990
2 39867  70.9672 305.3249 0139428 354.8461   5.1218 14.20375869562386
Epoch: 2025-10-15T07:54Z
TLE epoch observation values (Epoch: 2025-10-15T07:54:54.129Z)
Latitude
-0.00007°
Longitude
162.49392°
Altitude
726.465 km
Speed
7.544 km/s
True Right ascension
20h 21m 17s
True Declination
0° 00' 00"
Sunlit
Object was in daylight at epoch
Visualization orbit readout
Latitude
Unknown
Longitude
Unknown
Altitude
Unknown
Speed
Unknown
Apparent Right ascension
Unknown
Apparent Declination
Unknown
Sunlit
N/A
Visualization observer readout
Local Sidereal Time
11:28:28
Azimuth
Unknown
Elevation
Unknown
Doppler factor
Unknown
Orbital elements
Apogee altitude
922.394 km
Perigee altitude
721.614 km
Semi-major axis
7,200.141 km
Eccentricity
0.01394
Inclination
70.9672°
RAAN
305.3249°
Arg. of periapsis
354.8461°
True anomaly
5.26695°
Mean anomaly
5.1218°
Eccentric anomaly
5.19412°
Mean motion
3.55248 °/min
Orbital period
101.34 mins
BSTAR
0.0029051
Loading maneuver chart data...
Computing Atmospheric mass density...
Loading historical data...
Loading historical data...
Loading historical data...
Loading historical data...
Loading historical data...
Loading historical data...
Loading historical data...

Documentation

Showing up to 5 results
|